Location: Most
(50.5133°N, 13.6207°E)
Time: 16:37:05
(UTC+02:00)

Tiangong - Pass Details

Date: 29 September 2021
Orbit: 382 x 384 km, 41.5° (Epoch: 20 October)

Event Time Altitude Azimuth Distance (km) Brightness Sun altitude
Exits shadow 06:10:15 - 218° (SW) 1,676 3.9 -9.2°
Reaches altitude 10° 06:11:16 10° 206° (SSW) 1,395 3.6 -9.0°
Maximum altitude 06:13:05 14° 170° (S) 1,161 3.5 -8.7°
Drops below altitude 10° 06:14:54 10° 135° (SE) 1,395 4.5 -8.4°
Sets 06:17:37 0° 110° (ESE) 2,248 6.3 -8.0°
